{"data":{"norad_id":53046,"epoch":"2026-05-25T01:13:14.920896Z","epoch_age_seconds":64664,"freshness":"FRESH","line1":"1 53046U 22077D   26145.05086714 -.00004393  00000+0 -30039-3 0  9993","line2":"2 53046  97.4485 326.2001 0000542 106.4446 253.6841 15.05673628212486","mean_motion":15.05673628,"eccentricity":5.42e-5,"inclination_deg":97.4485,"raan_deg":326.2001,"arg_perigee_deg":106.4446,"mean_anomaly_deg":253.6841,"bstar":-0.00030039,"rev_number":21248,"period_min":95.638256074975,"perigee_km":549.06320383765,"apogee_km":549.81415304119,"semimajor_km":6927.5756784394,"source":"CELESTRAK","updated_at":"2026-05-25T13:38:17.285850Z"}}